カタログに戻る

ONEWEB-0663

運用中通信PO
NORAD 55823·PAYLOAD·🇬🇧 United Kingdom

打ち上げ Mar 9, 2023 から Cape Canaveral Space Force Station

Loading…

次のパス (今後24時間)

TLE

最新Source: CelesTrak SupGP

元期: Sep 14, 2026, 06:18 UTC

1 55823C 23029AD  26257.26266618 -.00000353  00000+0 -86831-3 0  2576
2 55823  87.9136 256.7323 0002162  78.5004   2.9478 13.20871660    17

AllMySatでONEWEB-0663をリアルタイム追跡

Download on the App Store